Regional Weather Roundup
Issued by NWS

Home | Current Version | Previous Version | Text Only | Print | Product List | Glossary On
Versions: 1 2 3 4 5 6 7 8 9 10 11 12 13 14 15 16 17 18 19 20 21 22 23 24 25 26 27 28 29 30 31 32 33 34 35 36 37 38 39 40 41 42 43 44 45 46 47 48 49 50
000
ASUS45 KBOI 252010
RWRID

IDAHO REGIONAL WEATHER ROUNDUP
NATIONAL WEATHER SERVICE BOISE ID
200 PM MDT MON JUL 25 2016

NOTE: "FAIR" INDICATES FEW OR NO CLOUDS BELOW 12000 FEET
WITH NO SIGNIFICANT WEATHER AND/OR OBSTRUCTIONS TO VISIBILITY

IDZ012-014-252100-
SOUTHWEST IDAHO


CITY           SKY/WX    TMP DP  RH WIND       PRES   REMARKS
BOISE          SUNNY     92  40  16 VRB6      29.99F
CALDWELL       NOT AVBL
MOUNTAIN HOME  SUNNY     94  33  11 VRB3      30.00F
$$

IDZ016-017-252100-
SOUTHCENTRAL IDAHO


CITY           SKY/WX    TMP DP  RH WIND       PRES   REMARKS
BURLEY         SUNNY     88  40  18 SW5       30.07F
JEROME         SUNNY     87  43  21 VRB6      30.09F
TWIN FALLS     SUNNY     89  36  15 NW8       30.09F
$$

IDZ019>023-252100-
SOUTHEAST IDAHO


CITY           SKY/WX    TMP DP  RH WIND       PRES   REMARKS
IDAHO FALLS    SUNNY     90  30  11 VRB6      30.11F
POCATELLO      SUNNY     91  27  10 VRB5      30.11F
REXBURG        NOT AVBL
$$

IDZ006-010-011-018-031-032-252100-
CENTRAL IDAHO MOUNTAINS


CITY           SKY/WX    TMP DP  RH WIND       PRES   REMARKS
MCCALL         SUNNY     85  37  18 VRB7      30.16F
HAILEY         MOSUNNY   90  34  13 S7        30.15F
STANLEY        NOT AVBL
SALMON         SUNNY     86  45  23 N8        30.02F
CHALLIS        SUNNY     88  31  13 SE7       30.11F
$$

IDZ002-004-006-007-026-252100-
NORTHERN IDAHO


CITY           SKY/WX    TMP DP  RH WIND       PRES   REMARKS
LEWISTON       SUNNY     92  49  22 E6        29.98F
LOWELL           N/A     89  53  29 S5        29.97F
COEUR D`ALENE  SUNNY     88  54  31 W3        30.00F
MULLAN PASS    SUNNY     70  42  36 VRB3      30.24F
$$



USA.gov is the U.S. government's official web portal to all federal, state and local government web resources and services.